{"data":{"norad_id":57204,"intl_designator":"2023-091AQ","name":"SITRO-AIS 12 (SMIRENNIY)","alt_names":[],"object_type":"PAYLOAD","status":"ACTIVE","operator":null,"country":"CIS","launch_date":"2023-06-27","launch_site_code":"VOSTO","launch_vehicle":null,"mission":null,"orbit_class":"UNKNOWN","rcs_meters":null,"size_class":null,"mass_kg":null,"dimensions":null,"purposes":["tech_demo"],"wikipedia_slug":null,"has_3d_model":false,"image_url":null,"decayed_at":null,"tle_current":{"epoch":"2026-05-25T04:02:58.706592Z","epoch_age_seconds":56676,"freshness":"FRESH","line1":"1 57204U 23091AQ  26145.16873503  .00019269  00000+0  52612-3 0  9999","line2":"2 57204  97.5102 215.3771 0007894 142.5612 217.6183 15.37431420161230","mean_motion":15.3743142,"eccentricity":0.0007894,"inclination_deg":97.5102,"raan_deg":215.3771,"arg_perigee_deg":142.5612,"mean_anomaly_deg":217.6183,"bstar":0.00052612,"rev_number":16123,"period_min":93.662714399319,"perigee_km":448.31497044084,"apogee_km":459.10108737248,"semimajor_km":6831.8450289067,"source":"CELESTRAK","updated_at":"2026-05-25T13:38:25.533902Z"}}}